Theta_e
308 309 309 308 309 310 310 310 311 309 306 308 309 310 309 304 309 306 309 310 311 309 308 307 309 309 307 313 320 321 322 323 323 323 322 318 321 322 322 324 325 333 332 331 328
308 307 307 308 309 310 310 310 308 310 307 308 308 305 305 306 309 308 308 308 306 307 309 307 307 310 311 314 317 321 322 324 322 320 320 319 319 320 322 322 322 331 329 329 330
307 303 305 308 308 309 310 309 309 308 309 309 306 304 305 307 309 308 303 307 306 306 307 308 306 309 315 313 316 319 322 321 322 319 319 320 319 318 320 322 325 333 330 328 330
306 301 301 303 306 308 309 309 309 308 308 306 305 304 307 308 310 305 304 304 304 304 305 308 307 309 311 314 313 317 317 320 321 320 321 323 320 318 317 318 320 327 329 329 328
305 301 300 301 302 304 305 306 306 307 307 305 303 305 307 306 305 304 305 304 304 303 304 306 309 309 312 312 312 314 314 314 315 320 323 323 323 322 320 318 318 324 329 329 328
304 300 301 300 300 301 301 303 302 302 304 303 301 306 307 306 304 307 306 306 304 305 305 306 306 308 307 307 310 310 309 310 312 314 318 323 322 320 320 317 317 321 323 327 328
304 300 301 300 300 301 302 303 303 303 301 301 303 307 305 304 307 307 307 307 306 306 306 306 306 308 308 308 307 308 307 307 306 310 316 319 320 321 318 317 318 317 317 321 327
305 301 301 300 299 302 303 303 304 303 302 304 308 308 304 307 307 307 306 307 306 307 306 306 306 308 309 307 307 306 306 307 308 306 307 317 319 315 314 316 317 316 315 317 320
304 302 300 299 299 302 304 305 305 306 306 307 308 308 306 307 307 306 306 306 307 307 307 306 306 307 307 308 308 306 305 308 308 307 308 313 315 314 313 312 311 311 315 315 319
303 303 300 299 300 302 304 307 306 306 307 307 307 307 306 307 306 306 307 307 307 307 309 307 306 307 307 308 310 311 311 309 307 305 307 305 304 305 306 306 307 306 308 313 315
300 303 300 300 301 302 302 307 302 302 304 305 305 306 306 306 306 307 307 307 307 308 309 307 307 309 309 309 309 308 309 310 309 309 308 308 305 306 306 306 304 305 305 306 309
298 303 300 299 303 303 301 303 303 302 303 305 305 306 306 307 308 308 307 307 308 309 309 308 311 309 308 308 308 309 309 309 309 309 309 308 308 307 307 308 308 306 305 307 310
298 302 300 299 303 306 303 305 305 305 306 306 306 307 307 307 307 308 307 308 308 309 309 311 309 309 310 309 310 309 310 310 310 309 307 307 306 307 307 307 307 307 306 305 309
298 302 300 299 303 305 305 303 303 305 299 302 307 309 307 306 308 307 308 307 308 311 310 309 310 311 310 310 310 311 309 309 310 308 310 307 308 306 307 307 307 306 306 306 304
298 302 300 299 301 305 303 302 304 305 297 301 303 304 306 306 306 309 307 307 309 310 309 309 309 310 310 311 310 310 309 309 309 311 310 308 304 306 306 306 305 305 305 304 304
298 302 300 302 303 301 301 303 305 300 295 298 303 304 306 307 308 309 309 307 308 308 308 307 308 310 309 308 309 309 311 308 310 310 303 307 307 306 306 306 308 307 307 307 306
299 302 300 301 304 301 302 304 298 295 296 295 300 304 305 306 308 309 311 309 309 306 302 305 309 309 308 309 309 310 309 297 303 307 299 307 307 306 308 307 305 305 304 304 306
299 301 300 299 301 301 304 295 293 287 292 301 304 304 305 305 305 306 307 308 309 307 307 307 303 310 309 309 311 313 312 309 309 308 307 306 308 309 306 305 304 303 303 304 304
301 301 303 301 301 302 296 292 292 294 301 304 304 298 300 306 305 304 310 309 309 307 302 307 299 306 308 308 310 309 307 310 305 300 305 307 306 307 306 305 304 303 302 302 303
302 302 304 301 301 303 292 296 293 301 304 304 296 300 298 303 303 305 306 308 309 309 305 304 304 301 307 306 307 310 309 311 303 301 304 305 305 307 306 305 302 301 300 301 302
302 299 302 300 302 294 291 288 298 301 303 300 294 301 304 302 303 305 306 308 306 307 305 306 307 299 305 307 310 311 310 310 309 309 308 302 304 306 306 303 302 300 301 300 299
301 294 300 301 293 294 289 295 300 301 301 304 301 302 304 304 304 305 306 306 302 302 305 307 307 304 299 306 307 309 312 313 310 309 307 308 305 305 302 301 301 301 300 297 298
298 296 300 301 292 290 296 300 301 303 303 303 304 302 303 302 299 304 305 301 301 303 305 304 306 300 299 304 303 304 307 307 308 308 311 311 307 302 301 300 300 299 297 296 296
296 300 299 297 297 296 294 297 299 300 303 303 303 303 304 300 302 302 304 303 301 305 306 304 304 306 306 308 308 303 306 306 307 303 307 308 305 303 301 300 300 298 297 296 295
296 296 297 300 297 298 297 298 301 299 302 302 303 302 302 296 293 297 302 302 302 304 303 304 306 301 303 305 306 307 309 304 304 305 307 304 304 304 302 300 299 297 297 296 295
298 297 294 298 298 299 299 298 299 301 300 301 301 302 301 302 297 297 300 301 301 300 300 301 300 304 299 305 306 306 308 301 299 305 306 304 304 303 302 301 299 297 297 296 295
299 296 297 297 298 299 297 297 298 299 300 300 301 301 301 301 301 299 299 299 299 299 300 300 302 302 299 304 302 307 304 304 305 304 306 301 304 304 302 301 299 297 296 295 294
Wind_Speed
12 13 13 14 14 14 14 11 11 12 13 14 15 16 16 16 11 12 9 11 14 18 18 20 17 11 8 3 3 2 2 3 5 5 7 7 4 3 4 5 3 4 4 8 30
12 12 14 15 15 16 14 11 10 9 11 13 16 16 15 12 5 13 9 15 15 15 18 12 9 14 2 3 3 3 4 5 5 3 4 6 7 3 4 4 6 6 5 23 24
11 13 14 14 14 15 15 12 9 9 10 13 15 16 13 9 1 4 16 17 16 17 18 12 9 4 2 2 3 3 4 7 12 4 7 8 6 6 4 4 3 6 9 13 16
11 12 13 14 14 14 14 12 10 10 10 13 16 17 12 4 4 10 18 17 15 15 18 14 4 2 2 2 3 4 5 7 10 9 3 4 8 7 4 4 7 8 15 9 9
11 12 12 13 13 14 14 12 11 10 11 12 14 14 7 4 3 13 16 17 13 18 19 9 9 5 3 5 7 3 7 9 11 7 5 3 5 3 8 5 6 5 10 11 9
11 11 12 14 14 15 14 13 12 11 11 11 12 12 3 5 9 12 14 11 12 13 13 14 5 8 4 4 4 5 6 8 6 8 5 3 5 3 4 8 6 7 8 8 9
10 10 12 13 16 15 13 14 14 9 8 10 10 9 5 2 4 8 9 14 14 11 5 9 9 5 7 5 6 5 6 7 6 3 3 4 6 5 8 7 10 8 8 8 11
9 10 11 13 15 14 15 14 10 9 9 7 8 6 2 4 6 11 13 6 10 8 5 7 9 2 2 5 5 2 1 4 5 4 6 7 8 6 10 7 11 13 10 9 10
9 11 11 13 14 15 15 11 7 9 9 6 7 3 3 4 6 11 10 8 10 4 5 4 3 1 5 3 3 4 2 3 6 4 2 5 3 11 11 9 12 11 15 13 9
8 10 11 14 14 15 12 5 4 9 3 4 4 3 5 6 11 8 5 10 5 9 1 4 4 2 3 4 2 4 4 5 5 7 9 7 7 9 12 5 8 8 8 11 9
8 9 10 13 13 15 13 2 6 6 10 4 3 3 3 16 3 5 9 10 4 2 4 3 5 6 6 6 4 4 4 8 10 12 7 4 7 9 13 11 9 10 7 7 8
7 9 10 12 10 17 16 7 3 1 2 2 1 2 3 9 3 3 15 5 5 5 6 3 6 5 6 4 3 2 3 6 9 7 8 8 14 16 14 17 15 8 8 8 7
6 7 8 9 5 11 18 9 0 0 2 2 2 2 4 4 3 5 8 6 4 6 8 2 3 7 4 3 3 4 4 3 5 8 4 9 6 3 5 13 16 15 6 6 6
4 5 8 4 3 5 4 6 3 2 4 7 2 2 3 2 2 4 4 2 4 6 6 3 4 7 7 5 6 5 6 6 7 7 3 6 4 8 9 6 2 8 8 11 8
4 3 6 9 2 4 2 6 4 1 4 4 5 5 5 2 3 4 3 4 4 7 4 4 6 6 6 6 8 2 3 3 3 5 5 2 4 7 5 9 9 10 9 10 10
3 3 3 2 4 2 3 2 2 5 3 5 3 5 4 2 2 3 2 3 1 2 2 6 2 3 3 6 3 6 5 5 1 2 2 3 4 5 3 5 5 13 14 14 13
3 1 3 2 0 2 3 2 5 6 4 6 3 5 4 4 3 1 5 7 5 7 8 7 3 1 1 4 3 4 3 3 4 3 5 2 3 6 6 9 10 11 16 17 15
3 1 2 2 2 3 2 5 7 3 4 4 2 4 3 5 5 7 5 4 7 6 4 5 7 1 2 1 3 4 2 1 3 2 4 6 4 3 3 5 9 11 11 14 17
5 3 2 2 0 2 4 5 7 6 4 2 2 6 5 4 2 4 4 3 1 3 4 6 6 5 4 3 1 3 2 3 0 1 2 3 5 4 16 18 20 19 17 16 16
8 4 3 1 0 2 4 3 3 3 2 1 3 3 1 4 4 1 5 2 2 2 3 2 5 2 4 3 4 2 4 1 2 3 4 4 4 5 19 19 20 19 17 17 16
6 3 1 2 2 4 3 5 3 4 3 3 4 2 2 1 2 3 3 1 2 2 5 3 3 7 4 1 3 1 1 2 2 2 2 2 4 5 9 12 15 18 15 14 15
6 2 2 3 4 2 3 5 3 4 2 3 3 2 2 1 2 1 2 1 4 1 2 2 1 5 7 5 4 3 4 2 2 3 3 2 3 3 10 11 10 12 11 13 12
4 2 3 1 3 2 2 1 3 4 4 4 5 3 5 4 1 2 2 5 6 3 3 1 1 4 8 2 3 3 3 2 6 3 4 2 3 3 8 11 14 14 15 16 17
4 2 2 3 1 5 4 3 2 2 1 3 2 6 4 2 2 4 2 1 4 3 6 4 2 4 4 3 1 3 2 5 2 1 4 3 5 14 16 15 17 15 15 15 15
2 3 2 4 4 4 5 7 5 4 2 5 2 6 5 2 3 3 3 1 5 3 1 2 2 3 8 11 9 7 5 5 2 4 3 2 2 5 10 11 10 8 12 15 15
5 4 1 3 2 7 5 6 9 4 7 4 5 6 7 5 7 7 4 2 3 2 2 3 2 2 4 4 3 6 7 3 2 3 2 3 2 4 4 6 8 10 11 12 13
6 5 4 5 4 5 5 6 10 9 7 5 10 3 6 8 4 4 3 1 4 4 2 0 2 3 4 1 3 5 5 4 2 1 1 2 0 4 3 5 6 7 7 8 10
Wind_Direction
12 9 358 358 0 357 347 340 337 344 357 357 351 348 350 352 29 57 38 337 330 338 357 345 14 310 266 262 267 17 142 221 218 228 257 343 287 12 161 97 60 53 140 151 157
12 6 6 7 5 359 354 346 338 337 352 352 352 348 349 352 55 64 2 348 347 358 346 346 335 343 335 244 280 164 180 220 255 256 303 314 31 323 100 65 23 59 51 141 142
7 10 11 10 10 5 3 6 353 353 345 347 350 351 349 346 42 7 358 354 353 347 338 315 288 294 297 297 274 272 190 229 273 331 356 324 343 324 69 93 144 143 148 152 142
5 12 15 12 11 10 5 6 3 1 359 351 348 352 346 3 51 348 349 352 357 4 4 0 332 340 262 252 282 277 309 265 274 294 274 299 324 337 46 39 145 145 156 152 156
5 12 13 13 8 7 358 353 3 3 352 352 353 359 16 52 29 355 335 338 350 2 360 359 20 3 7 322 349 9 346 341 338 353 345 1 308 291 310 313 94 57 156 173 175
7 12 7 9 0 360 350 342 352 354 348 355 3 10 357 67 354 351 1 2 4 8 355 29 347 313 292 312 6 318 321 304 319 316 304 332 294 8 294 321 318 167 203 190 183
5 11 2 2 359 359 354 341 347 346 352 0 11 13 48 112 41 7 14 31 17 16 357 1 350 4 326 331 339 323 325 330 282 252 263 26 284 245 268 295 287 270 227 225 194
360 3 356 358 3 359 347 344 3 9 8 36 32 8 90 63 43 13 3 342 351 354 350 336 330 274 293 317 324 279 312 329 294 214 233 166 247 288 263 246 259 272 262 218 225
352 356 350 355 5 359 356 355 24 33 36 39 34 8 30 332 13 344 340 344 348 332 335 327 332 358 350 1 2 12 313 250 314 67 353 165 259 264 253 250 244 256 252 250 222
350 349 351 354 8 3 358 346 14 33 11 20 336 20 23 340 328 337 346 324 293 304 185 44 7 59 10 50 58 349 337 338 304 4 359 321 275 291 294 283 266 264 267 254 222
340 345 354 356 11 11 8 63 15 11 35 88 331 344 346 329 313 14 353 317 302 290 18 41 41 46 24 22 52 22 333 314 305 302 335 319 275 278 292 301 291 288 298 252 238
339 342 354 0 28 30 51 73 95 220 3 83 300 267 264 324 326 5 352 31 360 4 1 26 73 29 337 69 28 330 325 306 295 345 333 303 283 266 261 265 269 272 293 310 303
337 341 355 7 47 42 62 70 9 315 121 69 60 310 285 336 321 1 12 344 10 7 1 351 290 324 13 12 337 347 322 338 316 330 302 348 305 355 281 248 256 265 270 270 274
329 340 358 1 67 27 50 7 25 38 75 319 16 270 290 248 32 12 31 48 2 352 350 296 6 10 352 351 3 314 13 9 346 2 305 55 292 333 326 344 279 276 268 271 275
312 341 25 38 63 65 14 352 21 65 59 298 324 309 285 42 255 314 43 7 47 337 31 296 356 14 4 16 342 325 334 286 292 286 339 301 66 274 310 17 7 21 4 356 331
294 324 51 37 79 62 349 34 3 40 267 332 325 343 14 291 184 154 93 2 118 46 244 260 315 349 327 318 317 333 316 330 262 84 356 246 129 283 29 13 12 4 5 2 352
257 311 42 51 71 351 357 51 41 94 329 310 334 332 344 320 325 238 96 40 33 12 13 330 346 218 246 350 26 30 14 356 2 1 212 82 100 263 51 35 29 3 351 345 352
198 162 53 51 345 340 81 50 72 228 235 268 288 336 58 352 333 347 24 67 51 52 351 358 332 321 66 348 346 332 356 105 306 335 278 318 227 160 23 39 31 11 349 349 345
168 137 75 29 354 348 68 54 189 197 193 311 6 62 332 323 55 42 65 66 52 49 77 354 289 333 52 336 43 313 334 339 209 348 11 266 293 207 360 1 360 0 353 339 335
152 142 136 6 92 40 68 165 155 224 156 187 133 150 176 339 12 15 22 189 125 149 108 195 292 282 313 24 31 341 339 310 22 28 318 307 318 320 351 339 334 339 339 336 329
143 85 28 147 75 55 152 208 198 220 111 120 197 117 67 142 266 319 39 208 32 187 161 138 184 290 336 37 334 340 344 256 265 190 199 296 290 11 328 337 334 338 333 333 330
132 73 85 143 56 65 152 182 205 151 128 200 128 149 112 268 290 292 60 100 88 78 54 105 341 282 237 296 309 310 24 302 232 298 218 179 270 343 351 342 343 335 336 339 346
113 128 77 58 152 232 274 223 192 155 166 184 201 182 177 200 93 262 226 114 85 69 109 135 258 323 346 3 4 53 5 290 272 259 216 213 284 33 357 359 5 355 355 360 3
106 121 16 52 220 145 148 215 187 202 140 217 241 173 167 48 332 241 201 71 9 115 147 126 228 200 229 251 326 307 294 322 257 279 339 284 336 359 6 2 359 356 358 5 6
92 222 187 177 235 200 154 155 155 168 187 186 271 225 185 137 353 247 228 12 78 126 275 150 265 202 263 261 257 250 273 325 284 258 253 321 67 355 356 346 338 343 4 12 4
134 148 335 147 119 147 188 204 180 166 151 224 212 214 211 185 197 205 176 204 162 69 86 20 272 317 289 17 225 257 260 305 264 319 331 110 70 5 319 325 2 9 11 11 3
157 132 117 173 154 144 207 192 197 158 202 188 199 175 213 225 205 158 161 172 133 134 131 229 310 331 274 335 275 278 210 189 254 274 255 108 188 243 286 341 359 3 13 2 1